This demonstration page uses our WeatherBlox Daily Observations layout. Learn more.

38.80484, -77.04692

Hourly Observations for September 25, 2020

Temp ( °F °C ) Dew Point ( °F °C ) Humidity (%) Winds ( mph kmh ) Pressure ( in mb ) Visibility ( mi km ) Precip ( " mm )
12:52 am 00:52 Mostly Cloudy 63 17.2 61 16.1 93 93 SSW 3 6 30.05 1018 10 16.0934 0 0
1:52 am 01:52 Mostly Cloudy 63 17.2 61 16.1 93 93 SSW 3 6 30.05 1018 10 16.0934 0 0
2:52 am 02:52 Mostly Cloudy 64 17.8 61 16.1 90 90 Calm 30.04 1017 10 16.0934 0 0
3:52 am 03:52 Cloudy 63 17.2 61 16.1 93 93 SSW 3 6 30.05 1018 9 14.48406 0 0
4:13 am 04:13 Mostly Clear 63 17.2 61 16.1 93 93 Calm 30.05 1018 9 14.48406 0 0
4:22 am 04:22 Cloudy 63 17.2 61 16.1 93 93 SW 5 7 30.06 1018 10 16.0934 0 0
4:52 am 04:52 Cloudy 63 17.2 61 16.1 93 93 SSW 6 9 30.06 1018 10 16.0934 0 0
5:15 am 05:15 Cloudy 63 17.2 61 16.1 93 93 SSW 6 9 30.08 1019 10 16.0934 0 0
5:52 am 05:52 Cloudy 63 17.2 61 16.1 93 93 SSW 5 7 30.08 1019 10 16.0934 0 0
6:52 am 06:52 Cloudy 62 16.7 60 15.6 93 93 SSW 6 9 30.09 1019 10 16.0934 0 0
7:52 am 07:52 Cloudy 63 17.2 60 15.6 90 90 SSW 8 13 30.11 1020 10 16.0934 0 0
8:52 am 08:52 Cloudy 64 17.8 60 15.6 87 87 S 6 9 30.11 1020 10 16.0934 0 0
9:52 am 09:52 Cloudy 65 18.3 60 15.6 84 84 SSW 8 13 30.14 1021 10 16.0934 0 0
10:52 am 10:52 Cloudy 65 18.3 60 15.6 84 84 S 9 15 30.14 1021 10 16.0934 0 0
11:52 am 11:52 Cloudy 66 18.9 59 15 78 78 S 6 9 30.14 1021 10 16.0934 0 0
12:52 pm 12:52 Cloudy with Light Rain 66 18.9 60 15.6 81 81 S 8 13 30.13 1020 10 16.0934 0.001 0.001
1:52 pm 13:52 Cloudy with Light Rain 67 19.4 61 16.1 81 81 S 7 11 30.11 1020 10 16.0934 0.001 0.001
2:52 pm 14:52 Cloudy 68 20 60 15.6 76 76 SSE 7 11 30.1 1019 10 16.0934 0.001 0.001
3:52 pm 15:52 Cloudy with Light Rain 68 20 61 16.1 78 78 S 10 17 30.1 1019 10 16.0934 0.001 0.001
4:52 pm 16:52 Cloudy with Light Rain 67 19.4 60 15.6 79 79 Calm 30.09 1019 10 16.0934 0.01 0.254
5:52 pm 17:52 Cloudy with Light Rain 67 19.4 62 16.7 84 84 Calm 30.09 1019 10 16.0934 0.01 0.254
6:52 pm 18:52 Mostly Cloudy with Light Rain 66 18.9 62 16.7 87 87 NE 3 6 30.1 1019 10 16.0934 0.001 0.001
7:29 pm 19:29 Mostly Cloudy with Light Rain 65 18.3 62 16.7 90 90 NE 6 9 30.1 1019 10 16.0934 0.02 0.508
7:41 pm 19:41 Mostly Cloudy with Light Rain 66 18.9 62 16.7 87 87 ENE 6 9 30.1 1019 10 16.0934 0.02 0.508
7:52 pm 19:52 Cloudy 66 18.9 62 16.7 87 87 ENE 7 11 30.1 1019 10 16.0934 0.02 0.508
8:52 pm 20:52 Cloudy 65 18.3 62 16.7 90 90 NE 7 11 30.1 1019 10 16.0934 0 0
9:52 pm 21:52 Cloudy with Light Rain 66 18.9 63 17.2 90 90 ESE 3 6 30.08 1019 10 16.0934 0.001 0.001
10:52 pm 22:52 Cloudy with Light Rain 65 18.3 62 16.7 90 90 S 10 17 30.09 1019 10 16.0934 0.01 0.254
11:18 pm 23:18 Cloudy with Rain 64 17.8 61 16.1 90 90 S 6 9 30.1 1019 6 9.65604 0.04 1.016
11:52 pm 23:52 Cloudy with Rain 63 17.2 61 16.1 93 93 SE 7 11 30.09 1019 4 6.43736 0.18 4.572

Powered by AerisWeather